Location: Walnut Point State Park
(39.6958°N, 88.0345°W)
Time: 04:42:27
(UTC-05:00)

Cosmos 1833 Rocket - Visible Passes

Search period start: 04 August 2015 00:00
Search period end: 14 August 2015 00:00
Orbit: 831 x 842 km, 71.0° (Epoch: 03 August)

Date Brightness Start Highest point End Pass type
(mag) Time Alt. Az. Time Alt. Az. Time Alt. Az.
04 Aug 3.7 00:58:51 10° NNW 01:02:33 41° NW 01:02:33 41° NW visible
04 Aug 4.6 22:59:34 10° N 23:03:12 18° NE 23:04:21 17° ENE visible
05 Aug 3.6 00:42:11 10° NNW 00:46:01 44° NW 00:46:01 44° NW visible
05 Aug 4.6 22:43:06 10° NNE 22:46:29 16° NE 22:47:50 15° ENE visible
06 Aug 3.5 00:25:32 10° NNW 00:29:31 47° NW 00:29:31 47° NW visible
06 Aug 4.7 22:26:39 10° NNE 22:29:46 15° NE 22:31:22 14° ENE visible
07 Aug 3.4 00:08:53 10° NNW 00:13:03 51° NNW 00:13:03 51° NNW visible
07 Aug 4.7 22:10:14 10° NNE 22:13:02 14° NE 22:14:55 12° ENE visible
07 Aug 3.2 23:52:15 10° NNW 23:56:36 55° NNW 23:56:36 55° NNW visible
08 Aug 4.8 21:53:51 10° NNE 21:56:18 13° NE 21:58:31 11° ENE visible
08 Aug 3.1 23:35:37 10° NNW 23:40:12 59° N 23:40:12 59° N visible
09 Aug 4.8 21:37:32 10° NNE 21:39:34 12° NE 21:41:53 10° ENE visible
09 Aug 3.0 23:18:59 10° NNW 23:23:49 63° N 23:23:49 63° N visible
10 Aug 5.2 01:05:07 10° WNW 01:05:31 11° WNW 01:05:31 11° WNW visible
10 Aug 4.9 21:21:19 10° NNE 21:22:50 11° NE 21:24:39 10° ENE visible
10 Aug 2.9 23:02:21 10° NNW 23:07:29 65° NNE 23:07:29 65° NNE visible
11 Aug 5.1 00:48:08 10° WNW 00:49:10 13° WNW 00:49:10 13° WNW visible
11 Aug 4.9 21:05:23 10° NE 21:06:05 10° NE 21:07:06 10° NE visible
11 Aug 2.8 22:45:44 10° NNW 22:51:10 63° NE 22:51:10 63° NE visible
12 Aug 5.0 00:31:13 10° WNW 00:32:51 14° WNW 00:32:51 14° WNW visible
12 Aug 2.8 22:29:07 10° NNW 22:34:41 58° ENE 22:34:53 58° ENE visible
13 Aug 4.8 00:14:21 10° WNW 00:16:35 17° W 00:16:35 17° W visible
13 Aug 2.9 22:12:30 10° NNW 22:18:02 54° ENE 22:18:38 51° E visible
